Flag for Kazakhstan Weather past 2 weeks in Almaty, Kazakhstan

Now
18 °F

Passing clouds.


Feels Like: 18 °F
Forecast: 20 / 40 °F
Wind: 1 mph from North

Location: Almaty Airport

Current Time: Apr 1, 2015 at 6:57:41 AM

Latest Report: Apr 1, 2015 at 6:30 AM


Visibility: N/A

Pressure: 30.04 "Hg

Humidity: 86%

Dew point: 14 °F

Location of AlmatyLocation

Historic Weather in Almaty — Graph

°F

Almaty temperature yesterday

Maximum temperature yesterday: 32 °F (at 3:30 PM)
Minimum temperature yesterday: 10 °F (at 6:30 AM)
Average temperature yesterday: 21 °F

Past Weeks' High & Low Weather Summary

 TemperatureHumidityPressure
High75 °F (Mar 23, 3:30 PM)93% (Mar 25, 5:30 AM)30.57 "Hg (Mar 25, 5:30 AM)
Low10 °F (Mar 31, 6:30 AM)14% (Mar 23, 3:30 PM)29.50 "Hg (Mar 24, 7:30 AM)
Average42 °F64%30.17 "Hg
* Reported Mar 17 5:00 AM — Apr 1 5:30 AM, Almaty, Weather by CustomWeather, © 2015

Note: Actual official high and low records may vary slightly from our data, if they occured in-between our weather recording intervals... More about our weather records

Advertising

Almaty weather history for previous 24 hours

 ConditionsComfort  
Time TempWeatherWind HumidityBarometerVisibility
5:30 AM
Wed, Apr 1
19 °FPassing clouds.1 mph79%30.07 "HgN/A
5:00 AM19 °FPassing clouds.1 mph86%30.04 "HgN/A
4:30 AM19 °FPassing clouds.1 mph86%30.04 "HgN/A
4:00 AM19 °FPassing clouds.No wind86%30.07 "HgN/A
3:30 AM19 °FPassing clouds.1 mph86%30.07 "HgN/A
3:00 AM19 °FPassing clouds.3 mph86%30.07 "HgN/A
2:30 AM19 °FPassing clouds.1 mph79%30.04 "HgN/A
2:00 AM19 °FPassing clouds.3 mph86%30.04 "HgN/A
1:30 AM19 °FPassing clouds.3 mph86%30.04 "HgN/A
1:00 AM21 °FPassing clouds.3 mph80%30.04 "HgN/A
12:30 AM21 °FPassing clouds.3 mph80%30.07 "HgN/A
12:00 AM21 °FIce fog.3 mph80%30.07 "Hg3 mi
11:30 PM
Tue, Mar 31
21 °FIce fog.6 mph80%30.07 "Hg3 mi
11:00 PM23 °FIce fog.6 mph74%30.09 "Hg2 mi
10:30 PM23 °FIce fog.3 mph80%30.09 "Hg3 mi
10:00 PM25 °FPassing clouds.6 mph74%30.12 "HgN/A
9:30 PM25 °FPassing clouds.6 mph74%30.15 "HgN/A
9:00 PM25 °FPassing clouds.6 mph74%30.15 "HgN/A
8:30 PM27 °FPassing clouds.6 mph69%30.15 "HgN/A
8:00 PM27 °FPassing clouds.8 mph69%30.15 "HgN/A
7:30 PM27 °FPassing clouds.10 mph69%30.15 "HgN/A
7:00 PM28 °FScattered clouds.8 mph64%30.15 "HgN/A
6:30 PM28 °FPartly sunny.6 mph59%30.15 "HgN/A
6:00 PM30 °FPartly sunny.3 mph43%30.18 "HgN/A
5:30 PM32 °FPartly sunny.3 mph34%30.18 "HgN/A
5:00 PM32 °FPartly sunny.1 mph32%30.18 "HgN/A
4:30 PM32 °FPartly sunny.3 mph32%30.18 "HgN/A
4:00 PM30 °FPartly sunny.1 mph29%30.18 "HgN/A
3:30 PM32 °FPartly sunny.1 mph32%30.21 "HgN/A
3:00 PM28 °FScattered clouds.1 mph40%30.21 "HgN/A
2:30 PM30 °FScattered clouds.3 mph37%30.21 "HgN/A
2:00 PM28 °FScattered clouds.3 mph40%30.21 "HgN/A
1:30 PM28 °FScattered clouds.3 mph43%30.24 "HgN/A
1:00 PM27 °FBroken clouds.3 mph54%30.24 "HgN/A
12:30 PM23 °FPartly sunny.6 mph58%30.24 "HgN/A
12:00 PM23 °FBroken clouds.6 mph63%30.27 "HgN/A
11:30 AM21 °FBroken clouds.6 mph58%30.27 "HgN/A
11:00 AM19 °FBroken clouds.6 mph63%30.27 "HgN/A
10:30 AM21 °FBroken clouds.3 mph63%30.30 "HgN/A
10:00 AM25 °FScattered clouds.3 mph63%30.30 "HgN/A
9:30 AM16 °FScattered clouds.1 mph73%30.30 "HgN/A
9:00 AM14 °FIce fog.1 mph67%30.30 "Hg3 mi
8:30 AM16 °FIce fog.1 mph73%30.30 "Hg3 mi
8:00 AM14 °FIce fog.1 mph73%30.30 "Hg2 mi
7:30 AM10 °FScattered clouds.No wind85%30.30 "HgN/A
7:00 AM10 °FBroken clouds.3 mph79%30.30 "HgN/A
6:30 AM10 °FPassing clouds.3 mph85%30.33 "HgN/A
6:00 AM12 °FPassing clouds.1 mph85%30.33 "HgN/A
Weather by CustomWeather, © 2015

See weather overviewHow to use our weather pages